| time (UTC) | temp F | wind direction | speed MPH | gust MPH | rain 1hr in | rain 24hr in | rain mn in | humidity % | barometer mb |
| 20260504204037 | 60 | 346 | 1.0 | 2.0 | 0.02 | 0.21 | 0.20 | 96 | 1016.1 |
| 20260504203509 | 60 | 0 | 0.0 | 1.0 | 0.02 | 0.21 | 0.20 | 96 | 1016.2 |
| 20260504203003 | 60 | 0 | 0.0 | 1.0 | 0.02 | 0.21 | 0.20 | 96 | 1016.0 |
| 20260504201033 | 61 | 98 | 0.0 | 0.0 | 0.01 | 0.20 | 0.19 | 96 | 1015.9 |
| 20260504200033 | 61 | 32 | 0.0 | 1.0 | 0.00 | 0.19 | 0.18 | 96 | 1016.0 |
| 20260504195032 | 61 | 8 | 0.0 | 1.0 | 0.00 | 0.20 | 0.18 | 96 | 1016.1 |
| 20260504194033 | 61 | 54 | 0.0 | 1.0 | 0.00 | 0.20 | 0.18 | 96 | 1016.0 |
| 20260504193506 | 61 | 28 | 0.0 | 2.0 | 0.00 | 0.20 | 0.18 | 96 | 1015.8 |
| 20260504192036 | 61 | 128 | 0.0 | 2.0 | 0.00 | 0.20 | 0.18 | 96 | 1015.9 |
| 20260504191435 | 61 | 176 | 1.0 | 3.0 | 0.00 | 0.21 | 0.18 | 95 | 1015.7 |
| 20260504191108 | 61 | 121 | 1.0 | 3.0 | 0.00 | 0.21 | 0.18 | 95 | 1015.9 |
| 20260504185033 | 61 | 164 | 2.0 | 4.0 | 0.00 | 0.21 | 0.18 | 95 | 1015.7 |
| 20260504184034 | 61 | 145 | 2.0 | 4.0 | 0.00 | 0.21 | 0.18 | 95 | 1015.6 |
| 20260504183033 | 61 | 130 | 3.0 | 3.0 | 0.00 | 0.21 | 0.18 | 94 | 1015.6 |
| 20260504182042 | 62 | 46 | 2.0 | 3.0 | 0.00 | 0.21 | 0.18 | 94 | 1015.6 |
| 20260504181514 | 62 | 158 | 1.0 | 4.0 | 0.00 | 0.22 | 0.18 | 93 | 1015.6 |
| 20260504180035 | 62 | 173 | 2.0 | 6.0 | 0.00 | 0.22 | 0.18 | 92 | 1015.7 |
| 20260504175034 | 63 | 137 | 3.0 | 4.0 | 0.00 | 0.22 | 0.18 | 92 | 1015.8 |
| 20260504174523 | 63 | 132 | 1.0 | 4.0 | 0.00 | 0.22 | 0.18 | 92 | 1015.9 |
| 20260504173517 | 63 | 124 | 3.0 | 3.0 | 0.00 | 0.22 | 0.18 | 92 | 1015.9 |
| 20260504172032 | 63 | 115 | 1.0 | 4.0 | 0.00 | 0.22 | 0.18 | 91 | 1016.0 |
| 20260504171033 | 63 | 145 | 2.0 | 4.0 | 0.00 | 0.22 | 0.18 | 90 | 1015.9 |
| 20260504151032 | 63 | 165 | 2.0 | 4.0 | 0.00 | 0.27 | 0.18 | 90 | 1016.2 |
| 20260504150511 | 63 | 136 | 2.0 | 4.0 | 0.00 | 0.28 | 0.18 | 90 | 1016.3 |
| 20260504141032 | 63 | 129 | 1.0 | 4.0 | 0.00 | 0.28 | 0.18 | 93 | 1016.4 |
| 20260504081512 | 61 | 30 | 0.0 | 2.0 | 0.00 | 0.12 | 0.00 | 92 | 1016.0 |
| 20260504045032 | 57 | 342 | 4.0 | 4.0 | 0.00 | 0.12 | 0.00 | 93 | 1015.3 |
| 20260504044517 | 57 | 342 | 2.0 | 4.0 | 0.00 | 0.12 | 0.00 | 93 | 1015.2 |
| 20260504043032 | 57 | 337 | 2.0 | 4.0 | 0.00 | 0.12 | 0.00 | 93 | 1015.2 |
| 20260504042032 | 57 | 345 | 3.0 | 6.0 | 0.00 | 0.12 | 0.00 | 94 | 1015.2 |
| 20260504041043 | 57 | 341 | 4.0 | 4.0 | 0.00 | 0.12 | 0.00 | 93 | 1015.3 |
| 20260504040527 | 57 | 351 | 3.0 | 4.0 | 0.00 | 0.12 | 0.00 | 94 | 1015.4 |
| 20260504035030 | 57 | 337 | 2.0 | 3.0 | 0.00 | 0.12 | 0.00 | 94 | 1015.1 |
| 20260504034031 | 57 | 343 | 1.0 | 2.0 | 0.00 | 0.12 | 0.00 | 94 | 1015.3 |
| 20260504033034 | 57 | 340 | 1.0 | 4.0 | 0.00 | 0.12 | 0.00 | 94 | 1015.3 |
| 20260504032507 | 57 | 348 | 0.0 | 4.0 | 0.00 | 0.12 | 0.00 | 94 | 1015.3 |
| 20260504031032 | 57 | 346 | 3.0 | 4.0 | 0.00 | 0.12 | 0.00 | 94 | 1015.3 |
| 20260504030032 | 57 | 341 | 2.0 | 3.0 | 0.00 | 0.12 | 0.00 | 94 | 1015.1 |
| 20260504025036 | 58 | 351 | 1.0 | 3.0 | 0.00 | 0.12 | 0.00 | 94 | 1015.4 |
| 20260504024035 | 58 | 9 | 1.0 | 2.0 | 0.00 | 0.12 | 0.00 | 94 | 1015.4 |
| 20260504023032 | 58 | 353 | 2.0 | 3.0 | 0.00 | 0.12 | 0.00 | 94 | 1015.5 |
| 20260504022511 | 58 | 335 | 2.0 | 3.0 | 0.00 | 0.12 | 0.00 | 94 | 1015.4 |
| 20260504021044 | 58 | 344 | 2.0 | 4.0 | 0.00 | 0.12 | 0.00 | 94 | 1015.5 |
| 20260504020033 | 58 | 349 | 2.0 | 3.0 | 0.00 | 0.12 | 0.00 | 94 | 1015.4 |
| 20260504015033 | 58 | 336 | 3.0 | 4.0 | 0.00 | 0.12 | 0.00 | 95 | 1015.6 |
| 20260504014034 | 58 | 343 | 3.0 | 4.0 | 0.00 | 0.12 | 0.00 | 96 | 1015.6 |
| 20260504013032 | 57 | 344 | 2.0 | 6.0 | 0.00 | 0.12 | 0.00 | 96 | 1015.9 |
| 20260504012521 | 57 | 338 | 2.0 | 4.0 | 0.00 | 0.12 | 0.00 | 97 | 1015.9 |
| 20260504011035 | 57 | 346 | 3.0 | 6.0 | 0.00 | 0.12 | 0.00 | 97 | 1016.0 |
| 20260504010036 | 57 | 359 | 2.0 | 4.0 | 0.00 | 0.12 | 0.00 | 97 | 1016.2 |
| 20260504005033 | 57 | 340 | 3.0 | 3.0 | 0.00 | 0.12 | 0.00 | 98 | 1016.0 |
| 20260504004033 | 57 | 354 | 2.0 | 4.0 | 0.00 | 0.12 | 0.00 | 98 | 1016.2 |
| 20260504003032 | 57 | 347 | 2.0 | 2.0 | 0.00 | 0.12 | 0.00 | 98 | 1016.3 |
| 20260504002033 | 57 | 341 | 1.0 | 3.0 | 0.00 | 0.12 | 0.00 | 98 | 1016.3 |
| 20260504001522 | 57 | 338 | 3.0 | 6.0 | 0.00 | 0.12 | 0.00 | 98 | 1016.2 |
| 20260504000037 | 57 | 349 | 1.0 | 1.0 | 0.00 | 0.12 | 0.00 | 98 | 1016.4 |
| 20260503235031 | 57 | 356 | 1.0 | 2.0 | 0.00 | 0.12 | 0.00 | 98 | 1016.5 |
| 20260503234034 | 57 | 23 | 0.0 | 2.0 | 0.00 | 0.12 | 0.00 | 98 | 1016.6 |
| 20260503233031 | 57 | 344 | 3.0 | 4.0 | 0.00 | 0.12 | 0.00 | 98 | 1016.5 |
| 20260503232031 | 57 | 342 | 1.0 | 2.0 | 0.00 | 0.12 | 0.00 | 98 | 1016.6 |
| 20260503231031 | 57 | 343 | 1.0 | 1.0 | 0.00 | 0.12 | 0.00 | 98 | 1016.4 |
| 20260503230032 | 58 | 347 | 0.0 | 2.0 | 0.00 | 0.12 | 0.00 | 98 | 1016.5 |
| 20260503225031 | 58 | 354 | 1.0 | 2.0 | 0.00 | 0.12 | 0.12 | 98 | 1016.5 |
| 20260503224031 | 57 | 337 | 1.0 | 2.0 | 0.00 | 0.12 | 0.12 | 98 | 1016.4 |
| 20260503223036 | 57 | 3 | 1.0 | 3.0 | 0.00 | 0.12 | 0.12 | 98 | 1016.3 |
| 20260503222035 | 59 | 28 | 0.0 | 1.0 | 0.00 | 0.12 | 0.12 | 98 | 1016.4 |
| 20260503221031 | 59 | 81 | 0.0 | 0.0 | 0.00 | 0.12 | 0.12 | 98 | 1016.6 |
| 20260503220031 | 59 | 115 | 0.0 | 1.0 | 0.00 | 0.12 | 0.12 | 98 | 1016.6 |
| 20260503215032 | 59 | 125 | 0.0 | 2.0 | 0.00 | 0.12 | 0.12 | 98 | 1016.5 |
| 20260503214033 | 59 | 138 | 0.0 | 1.0 | 0.01 | 0.12 | 0.12 | 98 | 1016.3 |
| 20260503213032 | 59 | 84 | 0.0 | 0.0 | 0.01 | 0.12 | 0.12 | 98 | 1016.2 |
| 20260503212031 | 59 | 87 | 0.0 | 3.0 | 0.01 | 0.12 | 0.12 | 98 | 1016.2 |
| 20260503211033 | 59 | 79 | 1.0 | 2.0 | 0.01 | 0.12 | 0.12 | 98 | 1015.9 |
| 20260503210034 | 59 | 146 | 1.0 | 3.0 | 0.01 | 0.12 | 0.12 | 98 | 1015.8 |
| 20260503205033 | 59 | 126 | 0.0 | 2.0 | 0.02 | 0.12 | 0.12 | 98 | 1015.9 |
| 20260503204506 | 59 | 78 | 0.0 | 1.0 | 0.01 | 0.11 | 0.11 | 98 | 1015.6 |